Location: Colonie
(42.7179°N, 73.8335°W)
Time: 10:12:25
(UTC+00:00)

NOSS 3-3 (A) - Pass Details

Date: 29 October 2020
Orbit: 826 x 1387 km, 63.4° (Epoch: 22 November)

Event Time Altitude Azimuth Distance (km) Brightness Sun altitude
Rises 23:24:39 0° 218° (SW) 3,393 7.5 -17.7°
Reaches altitude 10° 23:27:01 10° 219° (SW) 2,497 6.7 -18.1°
Maximum altitude 23:32:46 80° 306° (NW) 945 3.9 -19.2°
Enters shadow 23:38:34 13° 34° (NE) 2,544 5.9 -20.2°
